TimePDT,TemperatureF,Dew PointF,Humidity,Sea Level PressureIn,VisibilityMPH,Wind Direction,Wind SpeedMPH,Gust SpeedMPH,PrecipitationIn,Events,Conditions,WindDirDegrees,DateUTC
12:11 AM,60.8,57.2,88,29.90,1.5,South,3.5,-,N/A,,Overcast,190,2013-08-24 07:11:00
12:31 AM,60.8,57.2,88,29.90,1.2,South,4.6,-,N/A,,Overcast,190,2013-08-24 07:31:00
12:40 AM,60.8,57.2,88,29.90,1.8,Variable,3.5,-,N/A,,Overcast,0,2013-08-24 07:40:00
12:49 AM,60.8,57.2,88,29.90,2.0,South,4.6,-,N/A,,Overcast,180,2013-08-24 07:49:00
12:53 AM,61.0,57.9,90,29.90,2.5,South,3.5,-,N/A,,Overcast,190,2013-08-24 07:53:00
1:03 AM,60.8,57.2,88,29.90,4.0,South,3.5,-,N/A,,Overcast,180,2013-08-24 08:03:00
1:53 AM,61.0,57.9,90,29.90,4.0,SSW,3.5,-,N/A,,Overcast,200,2013-08-24 08:53:00
2:53 AM,61.0,57.9,90,29.90,5.0,SSW,3.5,-,N/A,,Overcast,200,2013-08-24 09:53:00
3:53 AM,61.0,57.9,90,29.90,4.0,Variable,3.5,-,N/A,,Overcast,0,2013-08-24 10:53:00
4:53 AM,62.1,57.9,86,29.89,4.0,Calm,Calm,-,N/A,,Overcast,0,2013-08-24 11:53:00
5:22 AM,62.6,57.2,82,29.89,5.0,Calm,Calm,-,N/A,,Overcast,0,2013-08-24 12:22:00
5:53 AM,62.1,57.9,86,29.89,5.0,SSW,3.5,-,0.00,,Overcast,200,2013-08-24 12:53:00
6:35 AM,60.8,57.2,88,29.89,4.0,South,3.5,-,N/A,,Overcast,190,2013-08-24 13:35:00
6:50 AM,60.8,57.2,88,29.89,2.5,South,3.5,-,N/A,,Overcast,190,2013-08-24 13:50:00
6:53 AM,61.0,57.9,90,29.89,2.5,Variable,3.5,-,N/A,,Overcast,0,2013-08-24 13:53:00
7:00 AM,60.8,57.2,88,29.89,3.0,Calm,Calm,-,N/A,,Overcast,0,2013-08-24 14:00:00
7:44 AM,62.6,57.2,82,29.90,4.0,Calm,Calm,-,N/A,,Overcast,0,2013-08-24 14:44:00
7:51 AM,62.6,57.2,82,29.90,4.0,Calm,Calm,-,N/A,,Overcast,0,2013-08-24 14:51:00
7:53 AM,62.1,57.9,86,29.91,4.0,Calm,Calm,-,N/A,,Overcast,0,2013-08-24 14:53:00
8:27 AM,62.6,57.2,82,29.91,5.0,Calm,Calm,-,N/A,,Overcast,0,2013-08-24 15:27:00
8:50 AM,62.6,57.2,82,29.91,6.0,SSW,4.6,-,N/A,,Haze,200,2013-08-24 15:50:00
8:53 AM,63.0,59.0,87,29.91,6.0,SSW,4.6,-,N/A,,Overcast,200,2013-08-24 15:53:00
9:11 AM,62.6,57.2,82,29.91,1.8,SSW,6.9,-,0.00,Rain,Light Rain,200,2013-08-24 16:11:00
9:21 AM,62.6,57.2,82,29.91,1.5,SW,6.9,-,0.03,Rain,Light Rain,220,2013-08-24 16:21:00
9:32 AM,60.8,57.2,88,29.91,3.0,Variable,3.5,-,0.03,Rain,Light Rain,0,2013-08-24 16:32:00
9:53 AM,63.0,59.0,87,29.91,5.0,Variable,3.5,-,0.03,,Mostly Cloudy,0,2013-08-24 16:53:00
10:06 AM,62.6,57.2,82,29.91,6.0,South,3.5,-,N/A,,Haze,180,2013-08-24 17:06:00
10:16 AM,64.4,59.0,83,29.91,7.0,SW,5.8,-,N/A,,Overcast,220,2013-08-24 17:16:00
10:33 AM,66.2,60.8,83,29.92,7.0,Variable,5.8,-,N/A,,Mostly Cloudy,0,2013-08-24 17:33:00
10:41 AM,66.2,59.0,78,29.92,7.0,SSW,5.8,-,N/A,,Mostly Cloudy,200,2013-08-24 17:41:00
10:53 AM,64.9,59.0,81,29.92,7.0,SW,9.2,-,N/A,,Overcast,220,2013-08-24 17:53:00
11:29 AM,66.2,59.0,78,29.92,8.0,WSW,6.9,-,N/A,,Mostly Cloudy,240,2013-08-24 18:29:00
11:53 AM,66.9,59.0,76,29.92,8.0,SSW,9.2,-,N/A,,Overcast,210,2013-08-24 18:53:00
12:23 PM,68.0,59.0,73,29.91,8.0,SSW,8.1,-,N/A,,Mostly Cloudy,200,2013-08-24 19:23:00
12:53 PM,66.0,57.9,75,29.91,8.0,SW,10.4,-,N/A,,Overcast,230,2013-08-24 19:53:00
1:53 PM,68.0,57.9,70,29.92,8.0,WSW,10.4,-,N/A,,Overcast,250,2013-08-24 20:53:00
2:11 PM,66.2,57.2,73,29.92,8.0,WSW,9.2,-,N/A,,Overcast,250,2013-08-24 21:11:00
2:21 PM,66.2,57.2,73,29.92,8.0,West,9.2,-,N/A,,Mostly Cloudy,260,2013-08-24 21:21:00
2:28 PM,66.2,57.2,73,29.93,8.0,WSW,6.9,-,N/A,,Overcast,240,2013-08-24 21:28:00
2:44 PM,64.4,57.2,77,29.92,7.0,West,8.1,-,N/A,,Overcast,260,2013-08-24 21:44:00
2:53 PM,66.0,57.9,75,29.92,8.0,WSW,5.8,-,N/A,,Mostly Cloudy,250,2013-08-24 21:53:00
3:21 PM,68.0,57.2,68,29.92,8.0,WSW,6.9,-,N/A,,Overcast,250,2013-08-24 22:21:00
3:33 PM,68.0,55.4,64,29.92,9.0,SW,10.4,-,N/A,,Overcast,230,2013-08-24 22:33:00
3:51 PM,66.2,57.2,73,29.92,8.0,West,6.9,-,N/A,,Overcast,280,2013-08-24 22:51:00
3:53 PM,66.0,57.0,73,29.92,8.0,West,8.1,-,N/A,,Mostly Cloudy,280,2013-08-24 22:53:00
4:53 PM,68.0,55.9,65,29.92,9.0,WSW,8.1,-,N/A,,Partly Cloudy,250,2013-08-24 23:53:00
5:53 PM,68.0,55.9,65,29.92,9.0,West,6.9,-,N/A,,Clear,280,2013-08-25 00:53:00
6:53 PM,66.0,54.0,65,29.91,8.0,West,6.9,-,N/A,,Clear,280,2013-08-25 01:53:00
7:53 PM,63.0,54.0,72,29.91,8.0,Calm,Calm,-,N/A,,Clear,0,2013-08-25 02:53:00
8:53 PM,59.0,53.1,81,29.93,9.0,Calm,Calm,-,N/A,,Clear,0,2013-08-25 03:53:00
9:53 PM,55.9,52.0,87,29.94,8.0,Calm,Calm,-,N/A,,Clear,0,2013-08-25 04:53:00
10:53 PM,54.0,50.0,86,29.94,7.0,Calm,Calm,-,N/A,,Clear,0,2013-08-25 05:53:00
11:53 PM,52.0,46.9,83,29.95,9.0,Calm,Calm,-,N/A,,Clear,0,2013-08-25 06:53:00